Kalamata, Greece

12:00 PM EEST on August 21, 2017 (GMT +0300)
Kalamata Air Base

Weather History for LGKL - October, 2012

Change the Weather History Date:

Tuesday, October 9, 2012

  Actual Average Record
Temperature  
Mean Temperature 68 °F -  
Max Temperature 80 °F 74 °F 87 °F (1998)
Min Temperature 57 °F 54 °F 53 °F (2002)
Cooling Degree Days 4    
Growing Degree Days 18 (Base 50)    
Moisture  
Dew Point 60 °F    
Average Humidity 74    
Maximum Humidity 94    
Minimum Humidity 47    
Precipitation  
Precipitation 0.00 in 0.15 in - ()
Sea Level Pressure  
Sea Level Pressure 29.85 in    
Wind  
Wind Speed 3 mph ()    
Max Wind Speed 10 mph    
Max Gust Speed -    
Visibility 6.2 miles    
Events Rain , Thunderstorm    
Averages and records for this station are not official NWS values.
T = Trace of Precipitation, MM = Missing Value Source: Averaged Metar Reports

Daily Weather History Graph

Daily Weather History Graph

Search for Another Location

Airport or City:

Trip Planner

Search our weather history database for the weather conditions in past years. The results will help you decide how hot, cold, wet, or windy it might be!

Date:

Astronomy

Oct. 09, 2012 Rise Set
Actual Time 7:34 AM EEST 7:03 PM EEST
Civil Twilight 7:08 AM EEST 7:29 PM EEST
Nautical Twilight 6:38 AM EEST 7:59 PM EEST
Astronomical Twilight 6:08 AM EEST 8:29 PM EEST
Moon 1:01 AM EEST (10/9) 3:11 PM EEST (10/9)
Length of Visible Light 12h 20m
Length of Day
11h 28m
Last Quarter, 40% of the Moon is Illuminated
Oct 9
Last Quarter
Oct 15
New
Oct 22
First Quarter
Oct 29
Full
Nov 7
Last Quarter

Hourly Weather History & Observations

Time (EEST) Temp. Heat Index Dew Point Humidity Pressure Visibility Wind Dir Wind Speed Gust Speed Precip Events Conditions
2:50 AM 60.8 °F - 55.4 °F 82% 29.86 in 6.2 mi NNW 5.8 mph - N/A   Partly Cloudy
3:20 AM 60.8 °F - 55.4 °F 82% 29.83 in 6.2 mi NNW 5.8 mph - N/A   Partly Cloudy
5:50 AM 59.0 °F - 53.6 °F 82% 29.83 in - NNW 4.6 mph - N/A   Clear
6:20 AM 59.0 °F - 53.6 °F 82% 29.83 in - Calm Calm - N/A   Clear
6:50 AM 59.0 °F - 53.6 °F 82% 29.83 in - Calm Calm - N/A   Clear
7:20 AM 57.2 °F - 53.6 °F 88% 29.86 in - Calm Calm - N/A   Clear
7:50 AM 57.2 °F - 53.6 °F 88% 29.86 in - Calm Calm - N/A   Clear
8:20 AM 60.8 °F - 55.4 °F 82% 29.86 in - Calm Calm - N/A   Clear
8:50 AM 64.4 °F - 57.2 °F 77% 29.86 in - Calm Calm - N/A   Clear
9:50 AM 69.8 °F - 59.0 °F 68% 29.89 in - Calm Calm - N/A   Clear
10:50 AM 78.8 °F - 57.2 °F 47% 29.89 in - Calm Calm - N/A   Clear
11:20 AM 77.0 °F - 59.0 °F 54% 29.89 in 6.2 mi Calm Calm - N/A   Partly Cloudy
11:50 AM 78.8 °F - 59.0 °F 51% 29.89 in 6.2 mi Calm Calm - N/A   Scattered Clouds
12:20 PM 78.8 °F - 59.0 °F 51% 29.89 in 6.2 mi South 6.9 mph - N/A   Partly Cloudy
12:50 PM 78.8 °F - 60.8 °F 54% 29.89 in 6.2 mi SSE 8.1 mph - N/A   Scattered Clouds
1:20 PM 78.8 °F - 59.0 °F 51% 29.86 in 6.2 mi SSE 8.1 mph - N/A   Scattered Clouds
1:50 PM 78.8 °F - 60.8 °F 54% 29.86 in 6.2 mi South 10.4 mph - N/A   Scattered Clouds
2:20 PM 80.6 °F 81.1 °F 59.0 °F 48% 29.86 in 6.2 mi South 10.4 mph - N/A   Scattered Clouds
2:50 PM 78.8 °F - 62.6 °F 57% 29.83 in 6.2 mi South 9.2 mph - N/A   Mostly Cloudy
3:20 PM 78.8 °F - 60.8 °F 54% 29.83 in 6.2 mi SSE 10.4 mph - N/A   Mostly Cloudy
3:50 PM 77.0 °F - 60.8 °F 57% 29.83 in 5.6 mi SSE 5.8 mph - N/A Rain , Thunderstorm Light Thunderstorms and Rain
4:20 PM 69.8 °F - 64.4 °F 83% 29.83 in 6.2 mi Calm Calm - N/A Rain Light Rain
4:50 PM 69.8 °F - 66.2 °F 88% 29.83 in 6.2 mi Calm Calm - N/A   Scattered Clouds
5:20 PM 71.6 °F - 66.2 °F 83% 29.83 in 6.2 mi NNW 4.6 mph - N/A   Scattered Clouds
5:50 PM 71.6 °F - 66.2 °F 83% 29.83 in 6.2 mi Calm Calm - N/A   Scattered Clouds
6:20 PM 71.6 °F - 66.2 °F 83% 29.83 in 6.2 mi Calm Calm - N/A   Scattered Clouds
6:50 PM 69.8 °F - 66.2 °F 88% 29.83 in 6.2 mi Calm Calm - N/A   Scattered Clouds
7:20 PM 69.8 °F - 66.2 °F 88% 29.83 in 6.2 mi Calm Calm - N/A   Scattered Clouds
7:50 PM 68.0 °F - 64.4 °F 88% 29.83 in 6.2 mi Calm Calm - N/A   Scattered Clouds
8:20 PM 66.2 °F - 64.4 °F 94% 29.86 in 6.2 mi Calm Calm - N/A   Scattered Clouds
8:50 PM 66.2 °F - 64.4 °F 94% 29.86 in 6.2 mi Calm Calm - N/A   Scattered Clouds
9:50 PM 64.4 °F - 62.6 °F 94% 29.86 in 6.2 mi NNW 5.8 mph - N/A   Partly Cloudy
11:50 PM 62.6 °F - 60.8 °F 94% 29.86 in 6.2 mi Calm Calm - N/A   Partly Cloudy